User: anonymous   Login
Location: Passau
(48.5830°N, 13.4830°E)
Time: 13:22:19
(UTC+02:00)
Language:

Transit 4A - Orbit

View from above orbital plane
View from above orbital plane
View from above satellite
View from above satellite

Ground track
Ground track

The orbit data is extracted from the following two-line orbital elements,

1 00116U 61015A   21213.65234717 -.00000067  00000-0  74764-5 0  9992
2 00116  66.8099 285.4211 0068613  80.7071 280.1759 13.91793984 48882
Epoch (UTC): 01 August 2021 15:39:22
Eccentricity: 0.0068613
inclination: 66.8099°
perigee height: 872 km
apogee height: 972 km
right ascension of ascending node: 285.4211°
argument of perigee: 80.7071°
revolutions per day: 13.91793984
mean anomaly at epoch: 280.1759°
orbit number at epoch: 4888

The dashed part of the orbit path shows where the satellite is in the earth's shadow,  

DLR